sampling_time,wmo_synop_id,msc_id,stn_nam,stn_elev,lat,long,stn_typ,date_tm,rpt_typ,result_time,crnt_buoy_lat,crnt_buoy_lat_qa_summary,crnt_buoy_long,crnt_buoy_long_qa_summary,avg_air_temp_pst10mts,avg_air_temp_pst10mts_qa_summary,avg_sea_sfc_temp_pst10mts,avg_sea_sfc_temp_pst10mts_qa_summary,avg_batry_volt_pst10mts,avg_batry_volt_pst10mts_qa_summary,avg_solr_panl_crnt_pst10mts,avg_solr_panl_crnt_pst10mts_qa_summary,avg_wtr_lvl_snsr_volt_pst10mts,avg_wtr_lvl_snsr_volt_pst10mts_qa_summary,avg_wave_hgt_pst20mts,avg_wave_hgt_pst20mts_qa_summary,pk_wave_hgt_pst20mts,pk_wave_hgt_pst20mts_qa_summary,sig_wave_pd_pst20mts,sig_wave_pd_pst20mts_qa_summary,sig_wave_hgt_pst20mts,sig_wave_hgt_pst20mts_qa_summary,avg_max_wave_hgt_pst20mts,avg_max_wave_hgt_pst20mts_qa_summary,avg_max_wave_pd_pst20mts,avg_max_wave_pd_pst20mts_qa_summary,avg_wave_pd_pst20mts,avg_wave_pd_pst20mts_qa_summary,pk_wave_pd_pst20mts,pk_wave_pd_pst20mts_qa_summary,avg_stn_pres_pst10mts,avg_stn_pres_pst10mts_qa_summary,avg_wnd_spd_pst10mts,avg_wnd_spd_pst10mts_qa_summary,avg_wnd_dir_pst10mts,avg_wnd_dir_pst10mts_qa_summary,max_avg_wnd_spd_pst10mts,max_avg_wnd_spd_pst10mts_qa_summary,wnd_snsr_vert_disp,wnd_snsr_vert_disp_qa_summary,pres_tend_char_pst3hrs,pres_tend_char_pst3hrs_data_flag,pres_tend_amt_pst3hrs,pres_tend_amt_pst3hrs_data_flag,avg_mslp_pst10mts,avg_mslp_pst10mts_data_flag,avg_stn_pres_pst10mts_1,avg_stn_pres_pst10mts_1_qa_summary,avg_stn_pres_pst10mts_2,avg_stn_pres_pst10mts_2_qa_summary,avg_wnd_spd_pst10mts_1,avg_wnd_spd_pst10mts_1_qa_summary,avg_wnd_spd_pst10mts_2,avg_wnd_spd_pst10mts_2_qa_summary,avg_wnd_dir_pst10mts_1,avg_wnd_dir_pst10mts_1_qa_summary,avg_wnd_dir_pst10mts_2,avg_wnd_dir_pst10mts_2_qa_summary,max_avg_wnd_spd_pst10mts_1,max_avg_wnd_spd_pst10mts_1_qa_summary,max_avg_wnd_spd_pst10mts_2,max_avg_wnd_spd_pst10mts_2_qa_summary
2022-10-23T00:00:00Z,44489,9302001,WEST CHEDABUCTO BAY,0,45.48687,-61.14100000000001,18,2022-10-23T00:00:00.000Z,108,2022-10-23T00:03:35.443Z,45.48727,100,-61.1411,100,13.3,100,13.5,100,12.6,100,0.0,100,3.6,100,0.3,100,0.8,100,4.1,100,0.5,100,0.6,100,5.4,100,3.3,100,11.1,100,1027.1,100,8.6,100,197,100,11.5,100,5,100,1,1,0.3,1,1027.1,1,1027.1,100,1027.2,100,8.6,100,8.3,100,197,100,200,100,11.5,100,11.5,100
2022-10-23T00:10:00Z,44489,9302001,WEST CHEDABUCTO BAY,0,45.48687,-61.14100000000001,18,2022-10-23T00:10:00.000Z,110,2022-10-23T00:13:37.410Z,,-1,,-1,13.9,100,14.1,100,12.6,100,0.0,100,3.6,100,,-1,,-1,,-1,,-1,,-1,,-1,,-1,,-1,1027.2,100,8.3,100,212,100,10.1,100,5,100,1,1,0.3,1,1027.2,1,1027.2,100,1027.2,100,8.3,100,7.9,100,212,100,215,100,10.1,100,10.1,100
2022-10-23T00:20:00Z,44489,9302001,WEST CHEDABUCTO BAY,0,45.48687,-61.14100000000001,18,2022-10-23T00:20:00.000Z,110,2022-10-23T00:22:41.223Z,45.48725,100,-61.141130000000004,100,13.3,100,13.4,100,12.6,100,0.0,100,3.6,100,,-1,,-1,,-1,,-1,,-1,,-1,,-1,,-1,1027.2,100,7.2,100,216,100,9.7,100,5,100,2,1,0.3,1,1027.2,1,1027.2,100,1027.2,100,7.2,100,6.8,100,216,100,219,100,9.7,100,9.4,100
2022-10-23T00:30:00Z,44489,9302001,WEST CHEDABUCTO BAY,0,45.48687,-61.14100000000001,18,2022-10-23T00:30:00.000Z,110,2022-10-23T00:32:44.554Z,45.48727,100,-61.1411,100,13.3,100,13.4,100,12.6,100,0.0,100,3.6,100,,-1,,-1,,-1,,-1,,-1,,-1,,-1,,-1,1027.4,100,9.4,100,237,100,14.0,100,5,100,3,1,0.4,1,1027.4,1,1027.4,100,1027.4,100,9.4,100,9.0,100,237,100,240,100,14.0,100,13.3,100
2022-10-23T00:40:00Z,44489,9302001,WEST CHEDABUCTO BAY,0,45.48687,-61.14100000000001,18,2022-10-23T00:40:00.000Z,110,2022-10-23T00:42:40.080Z,45.48725,100,-61.14108,100,13.3,100,13.4,100,12.6,100,0.0,100,3.6,100,,-1,,-1,,-1,,-1,,-1,,-1,,-1,,-1,1027.6,100,10.4,100,230,100,13.0,100,5,100,3,1,0.3,1,1027.6,1,1027.6,100,1027.6,100,10.4,100,10.1,100,230,100,233,100,13.0,100,12.2,100
2022-10-23T00:50:00Z,44489,9302001,WEST CHEDABUCTO BAY,0,45.48687,-61.14100000000001,18,2022-10-23T00:50:00.000Z,110,2022-10-23T00:52:42.096Z,45.48725,100,-61.1411,100,13.3,100,13.5,100,12.6,100,0.0,100,3.6,100,,-1,,-1,,-1,,-1,,-1,,-1,,-1,,-1,1027.7,100,13.0,100,230,100,18.0,100,5,100,3,1,0.5,1,1027.7,1,1027.7,100,1027.7,100,13.0,100,11.9,100,230,100,232,100,18.0,100,18.4,100
2022-10-23T01:00:00Z,44489,9302001,WEST CHEDABUCTO BAY,0,45.48687,-61.14100000000001,18,2022-10-23T01:00:00.000Z,108,2022-10-23T01:02:42.879Z,45.48723,100,-61.1411,100,13.4,100,13.5,100,12.6,100,0.0,100,3.6,100,0.3,100,0.8,100,5.3,100,0.5,100,0.6,100,6.6,100,3.6,100,11.8,100,1027.9,100,10.1,100,226,100,13.0,100,5,100,3,1,0.6,1,1027.9,1,1027.9,100,1027.9,100,10.1,100,9.4,100,226,100,229,100,13.0,100,12.6,100
2022-10-23T01:10:00Z,44489,9302001,WEST CHEDABUCTO BAY,0,45.48687,-61.14100000000001,18,2022-10-23T01:10:00.000Z,110,2022-10-23T01:15:55.969Z,45.48723,100,-61.1411,100,13.4,100,13.5,100,12.6,100,0.0,100,3.6,100,,-1,,-1,,-1,,-1,,-1,,-1,,-1,,-1,1028.0,100,9.0,100,216,100,13.0,100,5,100,3,1,0.7,1,1028.0,1,1028.0,100,1028.0,100,9.0,100,8.6,100,216,100,219,100,13.0,100,12.2,100
2022-10-23T01:20:00Z,44489,9302001,WEST CHEDABUCTO BAY,0,45.48687,-61.14100000000001,18,2022-10-23T01:20:00.000Z,110,2022-10-23T01:22:57.034Z,45.48725,100,-61.1411,100,13.4,100,13.5,100,12.6,100,0.0,100,3.6,100,,-1,,-1,,-1,,-1,,-1,,-1,,-1,,-1,1028.0,100,9.7,100,214,100,14.8,100,5,100,3,1,0.9,1,1028.0,1,1028.0,100,1028.0,100,9.7,100,9.4,100,214,100,217,100,14.8,100,14.4,100
2022-10-23T01:30:00Z,44489,9302001,WEST CHEDABUCTO BAY,0,45.48687,-61.14100000000001,18,2022-10-23T01:30:00.000Z,110,2022-10-23T01:32:57.542Z,45.48725,100,-61.14108,100,13.6,100,13.5,100,12.6,100,0.0,100,3.6,100,,-1,,-1,,-1,,-1,,-1,,-1,,-1,,-1,1028.0,100,10.1,100,220,100,13.0,100,5,100,3,1,0.9,1,1028.0,1,1028.0,100,1028.0,100,10.1,100,9.7,100,220,100,223,100,13.0,100,13.0,100
2022-10-23T01:40:00Z,44489,9302001,WEST CHEDABUCTO BAY,0,45.48687,-61.14100000000001,18,2022-10-23T01:40:00.000Z,110,2022-10-23T01:43:01.439Z,45.48723,100,-61.1411,100,13.5,100,13.5,100,12.6,100,0.0,100,3.6,100,,-1,,-1,,-1,,-1,,-1,,-1,,-1,,-1,1028.0,100,6.1,100,212,100,8.3,100,5,100,3,1,1.1,1,1028.0,1,1028.0,100,1028.0,100,6.1,100,6.1,100,212,100,216,100,8.3,100,8.3,100
2022-10-23T01:50:00Z,44489,9302001,WEST CHEDABUCTO BAY,0,45.48687,-61.14100000000001,18,2022-10-23T01:50:00.000Z,110,2022-10-23T01:53:02.514Z,45.48723,100,-61.14112,100,13.5,100,13.4,100,12.5,100,0.0,100,3.6,100,,-1,,-1,,-1,,-1,,-1,,-1,,-1,,-1,1027.9,100,6.1,100,225,100,9.0,100,5,100,3,1,0.9,1,1027.9,1,1027.9,100,1027.9,100,6.1,100,5.8,100,225,100,228,100,9.0,100,9.0,100
2022-10-23T02:00:00Z,44489,9302001,WEST CHEDABUCTO BAY,0,45.48687,-61.14100000000001,18,2022-10-23T02:00:00.000Z,108,2022-10-23T02:03:07.904Z,45.48725,100,-61.1411,100,13.4,100,13.4,100,12.6,100,0.0,100,3.6,100,0.3,100,0.8,100,5.6,100,0.4,100,0.5,100,6.8,100,3.8,100,11.8,100,1027.8,100,5.0,100,239,100,7.9,100,5,100,1,1,0.9,1,1027.8,1,1027.8,100,1027.8,100,5.0,100,5.0,100,239,100,242,100,7.9,100,7.6,100
2022-10-23T02:10:00Z,44489,9302001,WEST CHEDABUCTO BAY,0,45.48687,-61.14100000000001,18,2022-10-23T02:10:00.000Z,110,2022-10-23T02:16:09.499Z,45.48725,100,-61.1411,100,13.3,100,13.4,100,12.6,100,0.0,100,3.6,100,,-1,,-1,,-1,,-1,,-1,,-1,,-1,,-1,1027.8,100,5.4,100,215,100,9.0,100,5,100,0,1,0.9,1,1027.8,1,1027.8,100,1027.8,100,5.4,100,5.4,100,215,100,218,100,9.0,100,8.3,100
2022-10-23T02:20:00Z,44489,9302001,WEST CHEDABUCTO BAY,0,45.48687,-61.14100000000001,18,2022-10-23T02:20:00.000Z,110,2022-10-23T02:23:11.393Z,45.48727,100,-61.1411,100,13.3,100,13.4,100,12.6,100,0.0,100,3.6,100,,-1,,-1,,-1,,-1,,-1,,-1,,-1,,-1,1027.9,100,4.7,100,190,100,6.8,100,5,100,0,1,0.9,1,1027.9,1,1027.9,100,1027.9,100,4.7,100,4.7,100,190,100,194,100,6.8,100,6.5,100
2022-10-23T02:30:00Z,44489,9302001,WEST CHEDABUCTO BAY,0,45.48687,-61.14100000000001,18,2022-10-23T02:30:00.000Z,110,2022-10-23T02:33:09.629Z,45.48725,100,-61.14112,100,13.3,100,13.4,100,12.6,100,0.0,100,3.6,100,,-1,,-1,,-1,,-1,,-1,,-1,,-1,,-1,1027.9,100,5.4,100,181,100,8.3,100,5,100,1,1,1.0,1,1027.9,1,1027.9,100,1027.9,100,5.4,100,5.4,100,181,100,185,100,8.3,100,8.3,100
2022-10-23T02:40:00Z,44489,9302001,WEST CHEDABUCTO BAY,0,45.48687,-61.14100000000001,18,2022-10-23T02:40:00.000Z,110,2022-10-23T02:43:11.977Z,45.48725,100,-61.1411,100,13.4,100,13.4,100,12.5,100,0.0,100,3.6,100,,-1,,-1,,-1,,-1,,-1,,-1,,-1,,-1,1027.9,100,9.4,100,203,100,11.9,100,5,100,1,1,0.9,1,1027.9,1,1027.9,100,1027.9,100,9.4,100,9.0,100,203,100,206,100,11.9,100,11.2,100
2022-10-23T02:50:00Z,44489,9302001,WEST CHEDABUCTO BAY,0,45.48687,-61.14100000000001,18,2022-10-23T02:50:00.000Z,110,2022-10-23T02:53:14.650Z,45.4873,100,-61.14113,100,13.3,100,13.4,100,12.5,100,0.0,100,3.6,100,,-1,,-1,,-1,,-1,,-1,,-1,,-1,,-1,1028.0,100,10.1,100,195,100,12.2,100,5,100,1,1,1.0,1,1028.0,1,1028.0,100,1028.0,100,10.1,100,10.1,100,195,100,198,100,12.2,100,12.6,100
2022-10-23T03:00:00Z,44489,9302001,WEST CHEDABUCTO BAY,0,45.48687,-61.14100000000001,18,2022-10-23T03:00:00.000Z,108,2022-10-23T03:03:16.429Z,45.48728,100,-61.141169999999995,100,13.3,100,13.4,100,12.5,100,0.0,100,3.6,100,0.2,100,0.6,100,7.1,100,0.4,100,0.5,100,9.0,100,4.5,100,11.8,100,1027.9,100,10.4,100,192,100,15.1,100,5,100,1,1,0.7,1,1027.9,1,1027.9,100,1027.9,100,10.4,100,10.1,100,192,100,195,100,15.1,100,14.0,100
2022-10-23T03:10:00Z,44489,9302001,WEST CHEDABUCTO BAY,0,45.48687,-61.14100000000001,18,2022-10-23T03:10:00.000Z,110,2022-10-23T03:16:26.157Z,45.4873,100,-61.14115,100,13.3,100,13.4,100,12.6,100,0.0,100,3.6,100,,-1,,-1,,-1,,-1,,-1,,-1,,-1,,-1,1027.9,100,13.3,100,206,100,16.9,100,5,100,1,1,0.7,1,1027.9,1,1027.9,100,1027.9,100,13.3,100,11.9,100,206,100,208,100,16.9,100,14.8,100
2022-10-23T03:20:00Z,44489,9302001,WEST CHEDABUCTO BAY,0,45.48687,-61.14100000000001,18,2022-10-23T03:20:00.000Z,110,2022-10-23T03:23:30.828Z,45.48728,100,-61.141169999999995,100,13.2,100,13.4,100,12.6,100,0.0,100,3.6,100,,-1,,-1,,-1,,-1,,-1,,-1,,-1,,-1,1028.0,100,13.3,100,222,100,15.5,100,5,100,1,1,0.8,1,1028.0,1,1028.0,100,1028.0,100,13.3,100,12.2,100,222,100,224,100,15.5,100,15.1,100
2022-10-23T03:30:00Z,44489,9302001,WEST CHEDABUCTO BAY,0,45.48687,-61.14100000000001,18,2022-10-23T03:30:00.000Z,110,2022-10-23T03:33:28.306Z,45.48728,100,-61.14117,100,13.2,100,13.4,100,12.5,100,0.0,100,3.6,100,,-1,,-1,,-1,,-1,,-1,,-1,,-1,,-1,1028.1,100,13.0,100,236,100,18.4,100,5,100,1,1,0.7,1,1028.1,1,1028.1,100,1028.1,100,13.0,100,12.2,100,236,100,238,100,18.4,100,17.6,100
2022-10-23T03:40:00Z,44489,9302001,WEST CHEDABUCTO BAY,0,45.48687,-61.14100000000001,18,2022-10-23T03:40:00.000Z,110,2022-10-23T03:43:33.498Z,45.48725,100,-61.141119999999994,100,13.2,100,13.4,100,12.5,100,0.0,100,3.6,100,,-1,,-1,,-1,,-1,,-1,,-1,,-1,,-1,1028.1,100,15.1,100,237,100,18.4,100,5,100,1,1,0.6,1,1028.1,1,1028.1,100,1028.1,100,15.1,100,14.4,100,237,100,239,100,18.4,100,18.0,100
2022-10-23T03:50:00Z,44489,9302001,WEST CHEDABUCTO BAY,0,45.48687,-61.14100000000001,18,2022-10-23T03:50:00.000Z,110,2022-10-23T03:53:36.383Z,45.48725,100,-61.14112,100,13.2,100,13.4,100,12.5,100,0.0,100,3.6,100,,-1,,-1,,-1,,-1,,-1,,-1,,-1,,-1,1028.1,100,14.4,100,247,100,17.3,100,5,100,1,1,0.4,1,1028.1,1,1028.1,100,1028.1,100,14.4,100,14.0,100,247,100,250,100,17.3,100,17.3,100
2022-10-23T04:00:00Z,44489,9302001,WEST CHEDABUCTO BAY,0,45.48687,-61.14100000000001,18,2022-10-23T04:00:00.000Z,108,2022-10-23T04:02:33.121Z,45.48725,100,-61.141119999999994,100,13.2,100,13.4,100,12.5,100,0.0,100,3.6,100,0.2,100,0.6,100,6.9,100,0.4,100,0.5,100,8.0,100,4.3,100,11.8,100,1028.1,100,18.0,100,238,100,22.3,100,5,100,3,1,0.3,1,1028.1,1,1028.1,100,1028.1,100,18.0,100,17.3,100,238,100,241,100,22.3,100,20.5,100
2022-10-23T04:10:00Z,44489,9302001,WEST CHEDABUCTO BAY,0,45.48687,-61.14100000000001,18,2022-10-23T04:10:00.000Z,110,2022-10-23T04:15:47.564Z,45.48725,100,-61.14112,100,13.3,100,13.4,100,12.5,100,0.0,100,3.6,100,,-1,,-1,,-1,,-1,,-1,,-1,,-1,,-1,1028.2,100,18.0,100,238,100,20.5,100,5,100,3,1,0.2,1,1028.2,1,1028.2,100,1028.2,100,18.0,100,16.9,100,238,100,240,100,20.5,100,20.2,100
2022-10-23T04:20:00Z,44489,9302001,WEST CHEDABUCTO BAY,0,45.48687,-61.14100000000001,18,2022-10-23T04:20:00.000Z,110,2022-10-23T04:22:47.865Z,45.48727,100,-61.1411,100,13.2,100,13.4,100,12.5,100,0.0,100,3.6,100,,-1,,-1,,-1,,-1,,-1,,-1,,-1,,-1,1028.2,100,12.2,100,253,100,16.6,100,5,100,3,1,0.3,1,1028.2,1,1028.2,100,1028.3,100,12.2,100,11.9,100,253,100,256,100,16.6,100,16.2,100
2022-10-23T04:30:00Z,44489,9302001,WEST CHEDABUCTO BAY,0,45.48687,-61.14100000000001,18,2022-10-23T04:30:00.000Z,110,2022-10-23T04:32:51.435Z,45.48725,100,-61.14112,100,13.1,100,13.4,100,12.5,100,0.0,100,3.6,100,,-1,,-1,,-1,,-1,,-1,,-1,,-1,,-1,1028.3,100,9.7,100,275,100,14.4,100,5,100,3,1,0.3,1,1028.3,1,1028.3,100,1028.3,100,9.7,100,9.7,100,275,100,277,100,14.4,100,14.0,100
2022-10-23T04:40:00Z,44489,9302001,WEST CHEDABUCTO BAY,0,45.48687,-61.14100000000001,18,2022-10-23T04:40:00.000Z,110,2022-10-23T04:42:56.874Z,45.48725,100,-61.141130000000004,100,12.9,100,13.4,100,12.5,100,0.0,100,3.6,100,,-1,,-1,,-1,,-1,,-1,,-1,,-1,,-1,1028.3,100,7.6,100,312,100,9.7,100,5,100,3,1,0.3,1,1028.3,1,1028.3,100,1028.3,100,7.6,100,7.6,100,312,100,315,100,9.7,100,9.7,100
2022-10-23T04:50:00Z,44489,9302001,WEST CHEDABUCTO BAY,0,45.48687,-61.14100000000001,18,2022-10-23T04:50:00.000Z,110,2022-10-23T04:52:54.352Z,45.48725,100,-61.14115,100,12.8,100,13.4,100,12.5,100,0.0,100,3.6,100,,-1,,-1,,-1,,-1,,-1,,-1,,-1,,-1,1028.4,100,7.9,100,327,100,11.2,100,5,100,3,1,0.5,1,1028.4,1,1028.4,100,1028.4,100,7.9,100,7.9,100,327,100,330,100,11.2,100,11.2,100
2022-10-23T05:00:00Z,44489,9302001,WEST CHEDABUCTO BAY,0,45.48687,-61.14100000000001,18,2022-10-23T05:00:00.000Z,108,2022-10-23T05:02:59.180Z,45.48723,100,-61.141130000000004,100,12.8,100,13.4,100,12.5,100,0.0,100,3.6,100,0.2,100,0.6,100,7.4,100,0.4,100,0.5,100,7.8,100,4.3,100,11.8,100,1028.4,100,10.1,100,321,100,11.9,100,5,100,3,1,0.6,1,1028.4,1,1028.4,100,1028.4,100,10.1,100,10.1,100,321,100,324,100,11.9,100,11.9,100
2022-10-23T05:10:00Z,44489,9302001,WEST CHEDABUCTO BAY,0,45.48687,-61.14100000000001,18,2022-10-23T05:10:00.000Z,110,2022-10-23T05:16:00.042Z,45.48725,100,-61.14113,100,12.8,100,13.4,100,12.5,100,0.0,100,3.6,100,,-1,,-1,,-1,,-1,,-1,,-1,,-1,,-1,1028.4,100,7.6,100,299,100,10.1,100,5,100,3,1,0.6,1,1028.4,1,1028.4,100,1028.4,100,7.6,100,7.6,100,299,100,301,100,10.1,100,9.7,100
2022-10-23T05:20:00Z,44489,9302001,WEST CHEDABUCTO BAY,0,45.48687,-61.14100000000001,18,2022-10-23T05:20:00.000Z,110,2022-10-23T05:22:59.701Z,45.48727,100,-61.14115,100,12.9,100,13.4,100,12.5,100,0.0,100,3.6,100,,-1,,-1,,-1,,-1,,-1,,-1,,-1,,-1,1028.4,100,6.8,100,285,100,8.3,100,5,100,2,1,0.6,1,1028.4,1,1028.4,100,1028.4,100,6.8,100,6.8,100,285,100,288,100,8.3,100,8.3,100
2022-10-23T05:30:00Z,44489,9302001,WEST CHEDABUCTO BAY,0,45.48687,-61.14100000000001,18,2022-10-23T05:30:00.000Z,110,2022-10-23T05:33:03.613Z,45.48727,100,-61.14115,100,12.9,100,13.4,100,12.5,100,0.0,100,3.6,100,,-1,,-1,,-1,,-1,,-1,,-1,,-1,,-1,1028.4,100,6.1,100,258,100,7.2,100,5,100,2,1,0.5,1,1028.4,1,1028.4,100,1028.4,100,6.1,100,5.8,100,258,100,261,100,7.2,100,7.2,100
2022-10-23T05:40:00Z,44489,9302001,WEST CHEDABUCTO BAY,0,45.48687,-61.14100000000001,18,2022-10-23T05:40:00.000Z,110,2022-10-23T05:43:01.884Z,45.48727,100,-61.141130000000004,100,12.9,100,13.4,100,12.5,100,0.0,100,3.6,100,,-1,,-1,,-1,,-1,,-1,,-1,,-1,,-1,1028.4,100,5.8,100,226,100,7.6,100,5,100,2,1,0.5,1,1028.4,1,1028.4,100,1028.4,100,5.8,100,5.4,100,226,100,229,100,7.6,100,7.6,100
2022-10-23T05:50:00Z,44489,9302001,WEST CHEDABUCTO BAY,0,45.48687,-61.14100000000001,18,2022-10-23T05:50:00.000Z,110,2022-10-23T05:53:04.793Z,45.48725,100,-61.14113,100,12.9,100,13.4,100,12.5,100,0.0,100,3.6,100,,-1,,-1,,-1,,-1,,-1,,-1,,-1,,-1,1028.4,100,3.2,100,219,100,4.7,100,5,100,1,1,0.4,1,1028.4,1,1028.4,100,1028.4,100,3.2,100,3.2,100,219,100,221,100,4.7,100,4.7,100
2022-10-23T06:00:00Z,44489,9302001,WEST CHEDABUCTO BAY,0,45.48687,-61.14100000000001,18,2022-10-23T06:00:00.000Z,108,2022-10-23T06:03:09.400Z,45.48727,100,-61.141169999999995,100,12.9,100,13.4,100,12.5,100,0.0,100,3.6,100,0.2,100,0.6,100,7.7,100,0.4,100,0.5,100,7.8,100,4.8,100,10.0,100,1028.4,100,4.0,100,169,100,5.0,100,5,100,1,1,0.5,1,1028.4,1,1028.4,100,1028.4,100,4.0,100,4.0,100,169,100,172,100,5.0,100,4.7,100
2022-10-23T06:10:00Z,44489,9302001,WEST CHEDABUCTO BAY,0,45.48687,-61.14100000000001,18,2022-10-23T06:10:00.000Z,110,2022-10-23T06:16:15.842Z,45.48727,100,-61.14115,100,13.1,100,13.4,100,12.5,100,0.0,100,3.6,100,,-1,,-1,,-1,,-1,,-1,,-1,,-1,,-1,1028.5,100,4.7,100,197,100,8.3,100,5,100,1,1,0.6,1,1028.5,1,1028.5,100,1028.5,100,4.7,100,4.7,100,197,100,200,100,8.3,100,8.3,100
2022-10-23T06:20:00Z,44489,9302001,WEST CHEDABUCTO BAY,0,45.48687,-61.14100000000001,18,2022-10-23T06:20:00.000Z,110,2022-10-23T06:23:19.801Z,45.48727,100,-61.14115,100,13.2,100,13.4,100,12.5,100,0.0,100,3.6,100,,-1,,-1,,-1,,-1,,-1,,-1,,-1,,-1,1028.5,100,7.6,100,224,100,10.8,100,5,100,1,1,0.5,1,1028.5,1,1028.5,100,1028.5,100,7.6,100,7.6,100,224,100,227,100,10.8,100,10.8,100
2022-10-23T06:30:00Z,44489,9302001,WEST CHEDABUCTO BAY,0,45.48687,-61.14100000000001,18,2022-10-23T06:30:00.000Z,110,2022-10-23T06:33:26.446Z,45.48725,100,-61.14115,100,13.2,100,13.4,100,12.5,100,0.0,100,3.6,100,,-1,,-1,,-1,,-1,,-1,,-1,,-1,,-1,1028.4,100,6.5,100,238,100,8.3,100,5,100,1,1,0.4,1,1028.4,1,1028.4,100,1028.5,100,6.5,100,6.1,100,238,100,241,100,8.3,100,8.3,100
2022-10-23T06:40:00Z,44489,9302001,WEST CHEDABUCTO BAY,0,45.48687,-61.14100000000001,18,2022-10-23T06:40:00.000Z,110,2022-10-23T06:43:20.838Z,45.48723,100,-61.14115,100,13.1,100,13.4,100,12.5,100,0.0,100,3.6,100,,-1,,-1,,-1,,-1,,-1,,-1,,-1,,-1,1028.5,100,4.0,100,300,100,5.8,100,5,100,1,1,0.4,1,1028.5,1,1028.5,100,1028.5,100,4.0,100,4.0,100,300,100,302,100,5.8,100,5.8,100
2022-10-23T06:50:00Z,44489,9302001,WEST CHEDABUCTO BAY,0,45.48687,-61.14100000000001,18,2022-10-23T06:50:00.000Z,110,2022-10-23T06:53:29.116Z,45.48725,100,-61.14115,100,13.0,100,13.4,100,12.5,100,0.0,100,3.6,100,,-1,,-1,,-1,,-1,,-1,,-1,,-1,,-1,1028.5,100,3.6,100,313,100,5.0,100,5,100,1,1,0.4,1,1028.5,1,1028.5,100,1028.5,100,3.6,100,3.6,100,313,100,315,100,5.0,100,5.0,100
2022-10-23T07:00:00Z,44489,9302001,WEST CHEDABUCTO BAY,0,45.48687,-61.14100000000001,18,2022-10-23T07:00:00.000Z,108,2022-10-23T07:03:24.113Z,45.48723,100,-61.14115,100,13.0,100,13.4,100,12.5,100,0.0,100,3.6,100,0.2,100,0.6,100,7.5,100,0.4,100,0.5,100,8.9,100,4.8,100,11.8,100,1028.5,100,3.6,100,321,100,5.0,100,5,100,1,1,0.4,1,1028.5,1,1028.5,100,1028.5,100,3.6,100,3.6,100,321,100,324,100,5.0,100,4.7,100
2022-10-23T07:10:00Z,44489,9302001,WEST CHEDABUCTO BAY,0,45.48687,-61.14100000000001,18,2022-10-23T07:10:00.000Z,110,2022-10-23T07:16:35.413Z,45.48725,100,-61.14117,100,13.1,100,13.4,100,12.5,100,0.0,100,3.6,100,,-1,,-1,,-1,,-1,,-1,,-1,,-1,,-1,1028.4,100,3.6,100,290,100,7.6,100,5,100,1,1,0.3,1,1028.4,1,1028.4,100,1028.4,100,3.6,100,3.2,100,290,100,291,100,7.6,100,7.6,100
2022-10-23T07:20:00Z,44489,9302001,WEST CHEDABUCTO BAY,0,45.48687,-61.14100000000001,18,2022-10-23T07:20:00.000Z,110,2022-10-23T07:23:38.604Z,45.48725,100,-61.14115,100,13.0,100,13.4,100,12.5,100,0.0,100,3.6,100,,-1,,-1,,-1,,-1,,-1,,-1,,-1,,-1,1028.3,100,7.6,100,293,100,12.2,100,5,100,0,1,0.1,1,1028.3,1,1028.3,100,1028.4,100,7.6,100,7.6,100,293,100,296,100,12.2,100,12.2,100
2022-10-23T07:30:00Z,44489,9302001,WEST CHEDABUCTO BAY,0,45.48687,-61.14100000000001,18,2022-10-23T07:30:00.000Z,110,2022-10-23T07:33:45.076Z,45.48727,100,-61.14117,100,13.0,100,13.4,100,12.5,100,0.0,100,3.6,100,,-1,,-1,,-1,,-1,,-1,,-1,,-1,,-1,1028.3,100,10.4,100,262,100,13.0,100,5,100,0,1,0.0,1,1028.3,1,1028.3,100,1028.3,100,10.4,100,10.4,100,262,100,265,100,13.0,100,13.0,100
2022-10-23T07:40:00Z,44489,9302001,WEST CHEDABUCTO BAY,0,45.48687,-61.14100000000001,18,2022-10-23T07:40:00.000Z,110,2022-10-23T07:43:40.530Z,45.48728,100,-61.14118000000001,100,13.0,100,13.4,100,12.5,100,0.0,100,3.6,100,,-1,,-1,,-1,,-1,,-1,,-1,,-1,,-1,1028.2,100,10.8,100,237,100,13.3,100,5,100,8,1,-0.1,1,1028.2,1,1028.2,100,1028.2,100,10.8,100,10.8,100,237,100,239,100,13.3,100,13.0,100
2022-10-23T07:50:00Z,44489,9302001,WEST CHEDABUCTO BAY,0,45.48687,-61.14100000000001,18,2022-10-23T07:50:00.000Z,110,2022-10-23T07:52:43.841Z,45.48728,100,-61.14117,100,13.0,100,13.4,100,12.5,100,0.0,100,3.6,100,,-1,,-1,,-1,,-1,,-1,,-1,,-1,,-1,1028.2,100,9.7,100,242,100,16.2,100,5,100,8,1,-0.2,1,1028.2,1,1028.2,100,1028.2,100,9.7,100,9.7,100,242,100,244,100,16.2,100,15.5,100
2022-10-23T08:00:00Z,44489,9302001,WEST CHEDABUCTO BAY,0,45.48687,-61.14100000000001,18,2022-10-23T08:00:00.000Z,108,2022-10-23T08:02:47.119Z,45.48727,100,-61.141130000000004,100,12.9,100,13.4,100,12.5,100,0.0,100,3.6,100,0.2,100,0.6,100,8.7,100,0.4,100,0.5,100,8.8,100,6.1,100,10.5,100,1028.1,100,11.5,100,236,100,15.8,100,5,100,8,1,-0.3,1,1028.1,1,1028.1,100,1028.1,100,11.5,100,11.2,100,236,100,238,100,15.8,100,15.8,100
2022-10-23T08:10:00Z,44489,9302001,WEST CHEDABUCTO BAY,0,45.48687,-61.14100000000001,18,2022-10-23T08:10:00.000Z,110,2022-10-23T08:15:46.177Z,45.48728,100,-61.14117,100,12.9,100,13.4,100,12.5,100,0.0,100,3.6,100,,-1,,-1,,-1,,-1,,-1,,-1,,-1,,-1,1028.1,100,11.5,100,225,100,18.7,100,5,100,8,1,-0.3,1,1028.1,1,1028.1,100,1028.2,100,11.5,100,11.2,100,225,100,228,100,18.7,100,18.4,100
2022-10-23T08:20:00Z,44489,9302001,WEST CHEDABUCTO BAY,0,45.48687,-61.14100000000001,18,2022-10-23T08:20:00.000Z,110,2022-10-23T08:22:49.789Z,45.48728,100,-61.1412,100,13.0,100,13.4,100,12.5,100,0.0,100,3.6,100,,-1,,-1,,-1,,-1,,-1,,-1,,-1,,-1,1028.0,100,13.7,100,225,100,18.7,100,5,100,8,1,-0.4,1,1028.0,1,1028.0,100,1028.0,100,13.7,100,13.3,100,225,100,228,100,18.7,100,18.4,100
2022-10-23T08:30:00Z,44489,9302001,WEST CHEDABUCTO BAY,0,45.48687,-61.14100000000001,18,2022-10-23T08:30:00.000Z,110,2022-10-23T08:32:48.732Z,45.48725,100,-61.1411,100,13.0,100,13.4,100,12.5,100,0.0,100,3.6,100,,-1,,-1,,-1,,-1,,-1,,-1,,-1,,-1,1028.0,100,14.8,100,221,100,18.7,100,5,100,8,1,-0.4,1,1028.0,1,1028.0,100,1028.0,100,14.8,100,14.0,100,221,100,223,100,18.7,100,17.6,100
2022-10-23T08:40:00Z,44489,9302001,WEST CHEDABUCTO BAY,0,45.48687,-61.14100000000001,18,2022-10-23T08:40:00.000Z,110,2022-10-23T08:42:52.122Z,45.48728,100,-61.141169999999995,100,13.1,100,13.4,100,12.5,100,0.0,100,3.6,100,,-1,,-1,,-1,,-1,,-1,,-1,,-1,,-1,1028.1,100,13.0,100,226,100,16.2,100,5,100,8,1,-0.3,1,1028.1,1,1028.1,100,1028.1,100,13.0,100,12.6,100,226,100,229,100,16.2,100,16.2,100
2022-10-23T08:50:00Z,44489,9302001,WEST CHEDABUCTO BAY,0,45.48687,-61.14100000000001,18,2022-10-23T08:50:00.000Z,110,2022-10-23T08:52:52.558Z,45.48727,100,-61.14115,100,13.1,100,13.4,100,12.5,100,0.0,100,3.6,100,,-1,,-1,,-1,,-1,,-1,,-1,,-1,,-1,1028.2,100,10.1,100,238,100,12.2,100,5,100,8,1,-0.1,1,1028.2,1,1028.2,100,1028.3,100,10.1,100,9.7,100,238,100,241,100,12.2,100,11.9,100
2022-10-23T09:00:00Z,44489,9302001,WEST CHEDABUCTO BAY,0,45.48687,-61.14100000000001,18,2022-10-23T09:00:00.000Z,108,2022-10-23T09:02:59.427Z,45.48728,100,-61.141119999999994,100,13.1,100,13.4,100,12.5,100,0.0,100,3.6,100,0.2,100,0.6,100,8.2,100,0.4,100,0.4,100,8.5,100,5.4,100,11.1,100,1028.1,100,12.2,100,219,100,14.0,100,5,100,8,1,-0.3,1,1028.1,1,1028.1,100,1028.1,100,12.2,100,11.5,100,219,100,221,100,14.0,100,13.7,100
2022-10-23T09:10:00Z,44489,9302001,WEST CHEDABUCTO BAY,0,45.48687,-61.14100000000001,18,2022-10-23T09:10:00.000Z,110,2022-10-23T09:16:07.504Z,45.48728,100,-61.14115,100,13.1,100,13.4,100,12.5,100,0.0,100,3.6,100,,-1,,-1,,-1,,-1,,-1,,-1,,-1,,-1,1028.3,100,10.4,100,219,100,12.2,100,5,100,5,1,-0.1,1,1028.3,1,1028.3,100,1028.3,100,10.4,100,10.1,100,219,100,221,100,12.2,100,12.2,100
2022-10-23T09:20:00Z,44489,9302001,WEST CHEDABUCTO BAY,0,45.48687,-61.14100000000001,18,2022-10-23T09:20:00.000Z,110,2022-10-23T09:23:14.359Z,45.48728,100,-61.14115,100,13.1,100,13.4,100,12.5,100,0.0,100,3.6,100,,-1,,-1,,-1,,-1,,-1,,-1,,-1,,-1,1028.3,100,9.4,100,222,100,11.9,100,5,100,5,1,-0.2,1,1028.3,1,1028.3,100,1028.4,100,9.4,100,9.0,100,222,100,224,100,11.9,100,11.9,100